Regional Weather Roundup
Issued by NWS Grand Forks, ND

Home | Current Version | Previous Version | Text Only | Print | Product List | Glossary Off
Versions: 1 2 3 4 5 6 7 8 9 10 11 12 13 14 15 16 17 18 19 20 21 22 23 24 25 26 27 28 29 30 31 32 33 34 35 36 37 38 39 40 41 42 43 44 45 46 47 48 49 50

000
ASUS43 KFGF 241510
RWRFGF
PRAIRIE TO PINES  WEATHER ROUNDUP
NATIONAL WEATHER SERVICE EASTERN NORTH DAKOTA/GRAND FORKS ND
1000 AM CDT FRI APR 24 2015

 **SATELLITE DATA USED TO AUGMENT SKY COVER AT AUTOMATED STATIONS**
 *****  WEATHER ACROSS EASTERN NORTH DAKOTA  *****

CITY           SKY/WX    TMP DP  RH WIND       PRES   REMARKS
GRAND FORKS    CLOUDY    45  34  65 SE16      29.79S
GRAND FRKS AFB PTSUNNY   44  34  69 SE13      29.78F
GRAND FRKS NWS   N/A     41 N/A N/A E14         N/A
DEVILS LAKE    SUNNY     45  32  61 SE16      29.73S
FARGO          CLOUDY    45  36  70 SE23      29.73F
WAHPETON ARPT  CLOUDY    43  36  75 SE20G26   29.74F
$$

 ***** WEATHER ACROSS CENTRAL AND WESTERN NORTH DAKOTA  *****

CITY           SKY/WX    TMP DP  RH WIND       PRES   REMARKS
BISMARCK       SUNNY     45  31  58 NE7       29.68R
MINOT          SUNNY     41  30  65 E12       29.71F
JAMESTOWN      SUNNY     47  36  65 SE14      29.67F
MINOT AFB      SUNNY     42  32  69 SE12      29.71S
GARRISON         N/A     42  32  67 SE8       29.69S
WILLISTON      SUNNY     46  26  45 E5        29.67S
DICKINSON      SUNNY     43  26  51 VRB3      29.63F
HETTINGER      SUNNY     49  31  49 CALM      29.65S
$$

 *****  OTHER AIRPORT OBSERVATIONS IN OUR AREA  *****

CITY           SKY/WX    TMP DP  RH WIND       PRES   REMARKS
WALHALLA       FAIR      45  28  53 SE16      29.82F
GRAFTON AIRPOR CLOUDY    45  32  61 SE17      29.82S
VALLEY CITY AR FAIR      45  37  76 SE16      29.70F
CANDO          FAIR      45  32  61 SE18G24   29.76S
CAVALIER APRT  FAIR      45  32  61 SE14G22   29.81F
GWINNER        SUNNY     48  39  71 SE28      29.69S
SHEYENNE NWR     N/A     47  38  71 SE20      29.95
ROLLA          FAIR      41  32  70 SE17      29.77S
 ***** THE ABOVE OBSERVATIONS ARE NON NWS ARE NOT QUALITY
       CONTROLLED AND MAY MIS-REPORT RAIN FOR SNOW...
$$

  *****  WEATHER ACROSS NORTHERN MINNESOTA  *****

CITY           SKY/WX    TMP DP  RH WIND       PRES   REMARKS
FLAG ISLAND    CLOUDY    39  19  45 SE7       29.91F
WARROAD        CLOUDY    37  27  65 NE8       29.90S
ROSEAU         CLOUDY    43  27  52 SE10      29.87F
HALLOCK        CLOUDY    45  27  49 SE14      29.83S
THF RVR FALLS  CLOUDY    43  28  56 SE20      29.81F
BAUDETTE       CLOUDY    37  18  46 SE9       29.91S
WASKISH        CLOUDY    37  23  56 E5        29.90F
CROOKSTON      CLOUDY    43  34  70 SE14      29.80F
$$
  *****  WEATHER ACROSS CENTRAL AND WEST MINNESOTA  *****

CITY           SKY/WX    TMP DP  RH WIND       PRES   REMARKS
FOSSTON        CLOUDY    39  32  75 SE12G21   29.81S
BEMIDJI        CLOUDY    37  32  81 SE18G24   29.86F
PARK RAPIDS    CLOUDY    38  34  85 E14       29.83F
ELBOW LAKE     CLOUDY    39  35  84 E15G22    29.77S
WADENA         CLOUDY    39  34  81 E15       29.82R
DETROIT LAKES  CLOUDY    41  36  81 SE17G24   29.80S
MOORHEAD       CLOUDY    45  36  70 SE17G24   29.74F
FERGUS FALLS   CLOUDY    43  30  61 SE17G25   29.78S
MORRIS MN      CLOUDY    41  36  81 E26G33    29.75S
STAPLES        CLOUDY    39  34  81 SE12G18   29.83F
$$
  *****  WEATHER ELSEWHERE ACROSS MINNESOTA  *****

CITY           SKY/WX    TMP DP  RH WIND       PRES   REMARKS
DULUTH         CLOUDY    38  21  50 E8        29.99S
INTRNTL FALLS  CLOUDY    36  18  48 SE9       29.95F
ELY            CLOUDY    37  16  41 SE9G16    29.99S
CLOQUET        CLOUDY    37  25  60 SE6       29.98S
WHEATON        CLOUDY    39  36  87 E24G31    29.74S
BRAINERD       CLOUDY    40  35  83 SE8       29.90S
HIBBING        CLOUDY    40  16  37 SE10      29.96F
ALEXANDRIA     LGT RAIN  36  32  85 SE17G28   29.81R FOG
SAINT CLOUD    LGT RAIN  45  22  40 E5        29.90R
MINNEAPOLIS    CLOUDY    49  21  33 SE13      29.90S
$$

  *****  WEATHER ACROSS SOUTH DAKOTA  *****

CITY           SKY/WX    TMP DP  RH WIND       PRES   REMARKS
SIOUX FALLS    CLOUDY    54  42  64 SE16      29.69F
BROOKINGS      MOSUNNY   55  41  58 S25G31    29.68F
WATERTOWN      PTSUNNY   55  41  59 S18G26    29.65F
HURON          PTSUNNY   58  42  55 S17G23    29.60F
SISSETON         N/A     45  40  82 SE15      29.70F
ABERDEEN       PTSUNNY   57  43  59 SE14      29.61F
MITCHELL       PTSUNNY   56  42  59 S17G26    29.63F
PIERRE         PTSUNNY   59  46  62 NW10      29.53F
MOBRIDGE       CLOUDY    52  38  58 N9        29.58S
RAPID CITY     MOSUNNY   57  43  59 N13       29.62R
$$

  *****  SOME WEATHER IN NEARBY STATES *****

CITY           SKY/WX    TMP DP  RH WIND       PRES   REMARKS
GLASGOW MT     PTSUNNY   45  33  63 SE16      29.60F
GREAT FALLS MT CLOUDY    48  32  53 SW3       29.65R
CHEYENNE WY    SUNNY     54  29  38 W18G26    29.73F
SCOTTSBLUFF NE MOSUNNY   54  37  52 CALM      29.67S
OMAHA NE       CLOUDY    60  45  57 S18       29.74F
DES MOINES IA  CLOUDY    55  33  43 SE10      29.83F
DAVENPORT IA   NOT AVBL
CHICAGO IL     PTSUNNY   53  18  25 S5        30.06F
EAU CLAIRE WI  CLOUDY    44  18  35 SE8       29.98R
LA CROSSE WI   CLOUDY    48  26  42 CALM      29.98F
$$

  *****  SOME NATIONAL WEATHER *****

CITY           SKY/WX    TMP DP  RH WIND       PRES   REMARKS
LA GUARDIA NY  PTSUNNY   42  21  43 NW24G31   29.86S
RALEIGH NC     MOSUNNY   57  24  28 W9        30.09R
ATLANTA GA     PTSUNNY   63  34  33 SE8       30.10R
NEW ORLEANS LA CLOUDY    77  68  73 SE10      29.99R
OKLAHOMA CITY  CLOUDY    66  63  90 S15G21    29.78F FOG
ALBUQUERQUE NM CLOUDY    48  39  71 E3        29.93F
SALT LAKE CITY PTSUNNY   58  31  35 S16       29.72R
LOS ANGELES CA PTSUNNY   59  52  77 VRB3      29.97R
BOISE ID       LGT RAIN  47  41  80 N8        29.76R
SEATTLE WA     LGT RAIN  46  39  76 S14       29.80R
$$

*** WEATHER ACROSS MANITOBA...SASKATCHEWAN AND ONTARIO ***
                ***ONTARIO***

CITY           SKY/WX    TMP DP  RH WIND       PRES   REMARKS
GERALDTON      MOSUNNY   28  14  54 NW3       30.08F
THUNDER BAY    MOSUNNY   37  27  65 E8        30.10R
SIOUX LOOKOUT  PTSUNNY   36  12  38 SE5       30.02S
TORONTO        PTSUNNY   37  19  48 NW16G25   30.00R
BIG TROUT LK   SUNNY     18   9  68 NW6       30.11S WCI   9
PICKLE LAKE    MOSUNNY   27  10  50 N2        30.07S
DRYDEN         CLOUDY    37  16  41 SE10      29.98S
KENORA         PTSUNNY   43  16  33 S12G17    29.94S
$$
                *** MANITOBA***

CITY           SKY/WX    TMP DP  RH WIND       PRES   REMARKS
BRANDON        CLOUDY    45  27  49 SE10      29.80S
DAUPHIN        PTSUNNY   41  25  52 E8        29.80F
ISLAND LAKE    CLOUDY    25  12  58 SE12      30.05F WCI  14
PILOT MOUND      N/A     45  32  61 SE17G25     N/A
THE PAS        LGT SNOW  30  23  74 E8        29.83S WCI  23
THOMPSON       CLOUDY    19   9  63 E8        30.05F WCI   9
WINNIPEG       CLOUDY    43  19  39 SE12      29.87F
LYNN LAKE      MOSUNNY   14   9  79 NE8       30.04F WCI   3
CHURCHILL      MOSUNNY    9   3  78 W10       30.13F WCI  -6
GILLAM         CLOUDY    12   5  73 N3        30.15F
$$
                ***SASKATCHEWAN***

CITY           SKY/WX    TMP DP  RH WIND       PRES   REMARKS
ESTEVAN        NOT AVBL
KINDERSLEY     PTSUNNY   50  39  66 E17G24    29.61R
LLOYDMINSTER   CLOUDY    37  36  93 NE13      29.68S
PRINCE ALBERT  PTSUNNY   36  28  75 E16       29.75S
REGINA         PTSUNNY   39  28  65 SE12      29.69S
YORKTON        SUNNY     45  25  45 S15       29.74S
N. BATTLEFORD  CLOUDY    37  36  93 E9        29.71S
LA RONGE       FLURRIES  27  19  74 NE15      29.88S WCI  15
SASKATOON      CLOUDY    41  36  81 NE8       29.69R
SWIFT CURRENT  LGT RAIN  45  39  81 E7        29.61R
$$
NOTE: THESE ARE AUTOMATED STATIONS WITH LIMITED QUALITY CONTROL
      "FAIR" INDICATES FEW OR NO CLOUDS BELOW 12,000 FEET WITH NO
      SIGNIFICANT WEATHER AND/OR OBSTRUCTIONS TO VISIBILITY.
      SKY/WX - SKY CONDITION AND SIGNIFICANT WEATHER.
      TMP - AIR TEMPERATURE.    DP   - DEWPOINT TEMPERATURE.
      RH  - RELATIVE HUMIDITY.  PRES - PRESSURE.
      HX  - HEAT INDEX.         WCI  - WIND CHILL INDEX.
$



USA.gov is the U.S. government's official web portal to all federal, state and local government web resources and services.